Volver al catálogo

NEIMENGGU 1

ActivoCienciaSSO
NORAD 49003·PAYLOAD·🇨🇳 China
Este nombre de satélite aún no ha sido confirmado por fuentes oficiales.

Lanzado Jul 3, 2021 desde Taiyuan Satellite Launch Center

Loading…

Próximos Pases (próximas 24 horas)

TLE

ActualizadoSource: Space-Track

Época: Sep 14, 2026, 15:22 UTC

1 49003U 21061A   26257.64030977  .00001238  00000-0  79919-4 0  9997
2 49003  97.5143 332.1504 0008258 108.0953 252.1177 15.10047429286840

Sigue NEIMENGGU 1 en tiempo real con AllMySat

Download on the App Store